This demonstration page uses our WeatherBlox Daily Observations layout. Learn more.

Left ArrowRight Arrow

Hourly Observations for September 11, 2020

Temp ( °F °C ) Dew Point ( °F °C ) Humidity (%) Winds ( mph kmh ) Pressure ( in mb ) Visibility ( mi km ) Precip ( " mm )
12:54 am 00:54 Cloudy with Mist and Fog 53 11.7 51 10.6 93 93 Calm 30.32 1027 4 6.43736 0 0
1:54 am 01:54 Cloudy with Mist and Fog 53 11.7 50 10 89 89 NE 6 9 30.3 1026 5 8.0467 0 0
2:02 am 02:02 Cloudy with Mist and Fog 53 11.7 50 10 89 89 NE 5 7 30.3 1026 5 8.0467 0 0
2:12 am 02:12 Cloudy with Mist and Fog 53 11.7 50 10 89 89 NE 3 6 30.3 1026 5 8.0467 0 0
2:23 am 02:23 Cloudy with Mist and Fog 53 11.7 50 10 89 89 NE 5 7 30.29 1026 6 9.65604 0 0
2:38 am 02:38 Cloudy 53 11.7 50 10 89 89 NE 6 9 30.28 1026 7 11.26538 0 0
2:51 am 02:51 Cloudy 54 12 50 10 88 88 NE 6 9 30.28 1025 8 12.87472 0 0
2:54 am 02:54 Cloudy 53 11.7 50 10 89 89 NE 5 7 30.28 1026 8 12.87472 0 0
3:02 am 03:02 Cloudy 53 11.7 50 10 89 89 NE 6 9 30.28 1026 9 14.48406 0 0
5:54 am 05:54 Cloudy 53 11.7 50 10 89 89 NE 6 9 30.25 1024 9 14.48406 0 0
7:54 am 07:54 Cloudy 53 11.7 51 10.6 93 93 E 3 6 30.24 1024 7 11.26538 0 0
8:06 am 08:06 Cloudy 53 11.7 51 10.6 93 93 ESE 3 6 30.24 1024 7 11.26538 0 0
8:54 am 08:54 Cloudy with Light Rain 54 12.2 51 10.6 90 90 ENE 5 7 30.22 1023 5 8.0467 0.001 0.001
9:54 am 09:54 Cloudy 54 12.2 51 10.6 90 90 Calm 30.21 1023 9 14.48406 0.03 0.762
10:37 am 10:37 Cloudy with Light Rain 55 12.8 52 11.1 90 90 Calm 30.21 1023 6 9.65604 0.07 1.778
10:54 am 10:54 Cloudy with Light Rain 55 12.8 52 11.1 90 90 Calm 30.21 1023 9 14.48406 0.08 2.032
11:03 am 11:03 Cloudy with Light Rain 55 12.8 51 10.6 87 87 Calm 30.2 1023 9 14.48406 0.001 0.001
11:54 am 11:54 Cloudy 57 13.9 52 11.1 83 83 SSW 3 6 30.2 1023 10 16.0934 0.01 0.254
1:16 pm 13:16 Cloudy 57 13.9 52 11.1 83 83 Calm 30.15 1021 9 14.48406 0.001 0.001
1:54 pm 13:54 Cloudy with Light Rain 57 13.9 52 11.1 83 83 WSW 3 6 30.15 1021 9 14.48406 0.01 0.254
2:03 pm 14:03 Cloudy 57 13.9 53 11.7 87 87 Calm 30.13 1020 9 14.48406 0.001 0.001
2:40 pm 14:40 Cloudy 58 14.4 52 11.1 81 81 WNW 3 6 30.12 1020 10 16.0934 0.001 0.001
2:54 pm 14:54 Cloudy 58 14.4 52 11.1 81 81 W 3 6 30.11 1020 10 16.0934 0.001 0.001
3:01 pm 15:01 Cloudy 58 14.4 52 11.1 81 81 Calm 30.11 1020 10 16.0934 0 0
3:54 pm 15:54 Cloudy 59 15 53 11.7 81 81 WSW 3 6 30.1 1019 9 14.48406 0 0
4:54 pm 16:54 Mostly Cloudy 59 15 52 11.1 78 78 SSW 3 6 30.07 1018 9 14.48406 0 0
5:01 pm 17:01 Cloudy 59 15 52 11.1 78 78 SSW 3 6 30.07 1018 9 14.48406 0 0
5:54 pm 17:54 Cloudy 59 15 53 11.7 81 81 SSW 5 7 30.08 1019 9 14.48406 0 0
6:54 pm 18:54 Cloudy with Haze 58 14.4 53 11.7 84 84 SW 3 6 30.08 1019 4 6.43736 0 0
7:03 pm 19:03 Cloudy with Mist and Fog 57 13.9 54 12.2 90 90 Calm 30.07 1018 6 9.65604 0 0
7:22 pm 19:22 Cloudy 57 13.9 54 12.2 90 90 Calm 30.06 1018 9 14.48406 0 0
7:54 pm 19:54 Cloudy 57 13.9 54 12.2 90 90 Calm 30.06 1018 10 16.0934 0 0
8:41 pm 20:41 Cloudy 57 13.9 54 12.2 90 90 WSW 3 6 30.06 1018 9 14.48406 0 0
8:54 pm 20:54 Cloudy 57 13.9 54 12.2 90 90 SSW 3 6 30.07 1018 9 14.48406 0 0
9:28 pm 21:28 Cloudy 57 13.9 54 12.2 90 90 undefined N/A 30.06 1018 10 16.0934 0 0
9:54 pm 21:54 Cloudy 57 13.9 54 12.2 90 90 undefined N/A 30.06 1018 9 14.48406 0 0
10:51 pm 22:51 Cloudy 57 14 54 12 88 88 S 6 9 30.04 1017 10 16.0934 0 0
10:54 pm 22:54 Cloudy 56 13.3 54 12.2 93 93 S 6 9 30.04 1017 10 16.0934 0 0
11:54 pm 23:54 Mostly Clear 53 11.7 51 10.6 93 93 S 5 7 30.04 1017 8 12.87472 0 0

Powered by AerisWeather